EHI
0 0 0 0 0 0 0 0 0 0 0 0 0 0 0 0 0 0 0 0 0 0 0 0 0 0 0 0 0 0 0 0 0 0 0 0 0 0 0 0 0 0 0
0 0 0 0 0 0 0 0 0 0 0 0 0 0 0 0 0 0 0 0 0 0 0 0 0 0 0 0 0 0 0 0 0 0 0 0 0 0 0 0 0 0 0
0 0 0 0 0 0 0 0 0 0 0 0 0 0 0 0 0 0 0 0 0 0 0 0 0 0 0 0 0 0 0 0 0 0 0 0 0 0 0 0 0 0 0
0 0 0 0 0 0 0 0 0 0 0 0 0 0 0 0 0 0 0 0 0 0 0 0 0 0 0 0 0 0 0 0 0 0 0 0 0 0 0 0 0 0 0
0 0 0 0 0 0 0 0 0 0 0 0 0 0 0 0 0 0 0 0 0 0 0 0 0 0 0 0 0 0 0 0 0 0 0 0 0 0 0 0 0 0 0
0 0 0 0 0 0 0 0 0 0 0 0 0 0 0 0 0 0 0 0 0 0 0 0 0 0 0 0 0 0 0 0 0 0 0 0 0 0 0 0 0 0 0
0 0 0 0 0 0 0 0 0 0 0 0 0 0 0 0 0 0 0 0 0 0 0 0 0 0 0 0 0 0 0 0 0 0 0 0 0 0 0 0 0 0 0
0 0 0 0 0 0 0 0 0 0 0 0 0 0 0 0 0 0 0 0 0 0 0 0 0 0 0 0 0 0 0 0 0 0 0 0 0 0 0 0 0 0 0
0 0 0 0 0 0 0 0 0 0 0 0 0 0 0 0 0 0 0 0 0 0 0 0 0 0 0 0 0 0 0 0 0 0 0 0 0 0 0 0 0 0 0
0 0 0 0 0 0 0 0 0 0 0 0 0 0 0 0 0 0 0 0 0 0 0 0 0 0 0 0 0 0 0 0 0 0 0 0 0 0 0 0 0 0 0
0 0 0 0 0 0 0 0 0 0 0 0 0 0 0 0 0 0 0 0 0 0 0 0 0 0 0 0 0 0 0 0 0 0 0 0 0 0 0 0 0 0 0
0 0 0 0 0 0 0 0 0 0 0 0 0 0 0 0 0 0 0 0 0 0 0 0 0 0 0 0 0 0 0 0 0 0 0 0 0 0 0 0 0 0 0
0 0 0 0 0 0 0 0 0 0 0 0 0 0 0 0 0 0 0 0 0 0 0 0 0 0 0 0 0 0 0 0 0 0 0 0 0 0 0 0 0 0 0
0 0 0 0 0 0 0 0 0 0 0 0 0 0 0 0 0 0 0 0 0 0 0 0 0 0 0 0 0 0 0 0 0 0 0 0 0 0 0 0 0 0 0
0 0 0 0 0 0 0 0 0 0 0 0 0 0 0 0 0 0 0 0 0 0 0 0 0 0 0 0 0 0 0 0 0 0 0 0 0 0 0 0 0 0 0
0 0 0 0 0 0 0 0 0 0 0 0 0 0 0 0 0 0 0 0 0 0 0 0 0 0 0 0 0 0 0 0 0 0 0 0 0 0 0 0 0 0 0
0 0 0 0 0 0 0 0 0 0 0 0 0 0 0 0 0 0 0 0 0 0 0 0 0 0 0 0 0 0 0 0 0 0 0 0 0 0 0 0 0 0 0
0 0 0 0 0 0 0 0 0 0 0 0 0 0 0 0 0 0 0 0 0 0 0 0 0 0 0 0 0 0 0 0 0 0 0 0 0 0 0 0 0 0 0
0 0 0 0 0 0 0 0 0 0 0 0 0 0 0 0 0 0 0 0 0 0 0 0 0 0 0 0 0 0 0 0 0 0 0 0 0 0 0 0 0 0 0
0 0 0 0 0 0 0 0 0 0 0 0 0 0 0 0 0 0 0 0 0 0 0 0 0 0 0 0 0 0 0 0 0 0 0 0 0 0 0 0 0 0 0
0 0 0 0 0 0 0 0 0 0 0 0 0 0 0 0 0 0 0 0 0 0 0 0 0 0 0 0 0 0 0 0 0 0 0 0 0 0 0 0 0 0 0
0 0 0 0 0 0 0 0 0 0 0 0 0 0 0 0 0 0 0 0 0 0 0 0 0 0 0 0 0 0 0 0 0 0 0 0 0 0 0 0 0 0 0
0 0 0 0 0 0 0 0 0 0 0 0 0 0 0 0 0 0 0 0 0 0 0 0 0 0 0 0 0 0 0 0 0 0 0 0 0 0 0 0 0 0 0
0 0 0 0 0 0 0 0 0 0 0 0 0 0 0 0 0 0 0 0 0 0 0 0 0 0 0 0 0 0 0 0 0 0 0 0 0 0 0 0 0 0 0
0 0 0 0 0 0 0 0 0 0 0 0 0 0 0 0 0 0 0 0 0 0 0 0 0 0 0 0 0 0 0 0 0 0 0 0 0 0 0 0 0 0 0
0 0 0 0 0 0 0 0 0 0 0 0 0 0 0 0 0 0 0 0 0 0 0 0 0 0 0 0 0 0 0 0 0 0 0 0 0 0 0 0 0 0 0
Wind_Speed
1 1 1 1 1 1 1 1 1 1 1 1 2 2 2 2 2 2 0 2 3 4 4 5 4 4 4 4 5 5 6 6 6 7 7 7 7 7 7 7 7 7 7
1 2 2 1 1 1 1 2 2 2 2 2 2 3 3 3 2 3 2 1 2 3 4 5 5 5 5 5 5 5 6 6 7 8 8 8 8 8 7 7 8 8 8
2 2 2 2 1 1 1 1 2 2 2 2 2 2 2 3 3 3 3 3 2 2 3 5 5 5 5 6 6 6 7 7 8 8 8 9 9 8 8 8 9 9 9
3 2 2 2 2 2 2 1 2 2 2 2 2 2 2 3 4 3 3 3 3 2 2 3 4 5 6 6 7 7 7 8 8 8 9 9 9 9 8 8 9 10 10
3 2 2 2 2 2 2 2 2 2 2 2 2 2 2 3 3 3 4 3 3 3 3 2 3 4 5 6 7 8 8 8 8 8 9 9 9 9 9 9 9 10 10
3 2 2 2 2 2 2 2 2 2 2 2 2 3 3 3 3 3 4 3 3 3 3 3 2 2 3 5 6 8 8 8 8 8 9 9 9 9 9 9 10 10 9
3 3 2 2 2 2 3 3 2 2 2 2 3 3 3 4 4 3 3 3 3 3 3 3 2 2 2 3 5 7 8 9 9 8 8 9 9 9 9 9 10 10 10
3 3 3 3 3 3 3 3 3 2 2 2 3 3 3 3 4 3 3 3 3 2 2 3 2 3 3 2 3 6 8 9 9 9 9 9 10 10 10 10 10 10 10
3 4 4 3 3 3 3 4 4 4 3 3 3 3 3 3 2 3 3 3 3 3 3 2 3 3 4 3 3 4 7 9 9 9 10 10 10 10 10 10 10 10 10
3 3 4 4 4 3 4 4 4 4 4 3 3 3 3 3 3 2 2 2 2 3 3 3 3 4 4 3 4 5 7 8 9 9 10 10 11 11 10 10 10 10 10
3 3 3 3 4 3 4 4 4 4 4 4 3 3 3 3 4 4 4 3 2 3 3 3 3 3 4 4 4 4 7 8 9 9 10 10 11 11 11 10 10 10 9
3 3 3 3 4 3 4 4 4 4 4 4 4 3 3 3 3 4 4 4 3 3 3 3 3 3 3 4 4 5 7 8 9 9 10 10 11 11 11 10 10 10 10
3 4 4 4 4 4 4 4 4 4 5 5 5 4 3 3 3 4 4 4 5 3 4 3 3 3 3 3 3 5 6 7 8 9 10 10 11 10 10 10 10 10 10
4 4 5 5 5 5 4 4 4 4 4 5 5 5 4 4 4 4 4 4 4 4 4 4 3 3 3 3 4 6 5 7 9 9 10 10 10 10 10 10 10 10 11
4 5 5 5 5 5 5 5 4 5 4 5 5 5 4 4 4 4 4 4 4 5 5 4 3 3 3 3 5 5 6 7 9 10 10 10 10 9 9 9 10 10 10
5 5 5 5 5 5 5 5 5 5 5 5 4 5 5 4 4 4 4 4 5 5 5 4 4 4 4 4 6 6 6 8 9 10 10 10 9 9 9 9 10 10 10
6 6 6 6 6 6 6 6 6 6 6 5 5 5 6 5 4 4 4 4 4 5 6 5 4 4 5 6 5 5 5 6 6 9 10 9 9 9 9 10 10 10 10
6 6 6 6 6 6 6 6 6 6 6 6 6 6 6 4 6 5 4 5 4 5 6 7 5 4 6 6 6 6 5 5 6 8 9 9 8 8 9 10 9 9 9
6 6 6 6 6 6 6 7 7 6 6 7 6 6 6 6 6 5 5 5 4 4 5 6 5 4 4 4 5 5 6 5 6 6 8 8 8 8 9 9 9 8 8
6 6 6 6 6 6 6 6 6 6 6 6 6 6 6 6 6 6 5 5 4 5 5 5 5 4 4 4 4 4 5 4 5 5 5 5 6 7 8 8 8 7 7
6 6 6 6 6 6 6 6 6 6 6 6 6 6 6 7 7 6 5 5 5 4 4 5 5 4 4 3 3 3 5 5 5 4 4 4 4 4 4 6 7 7 7
6 6 6 6 6 5 6 7 6 6 6 6 6 6 6 7 8 9 8 7 6 6 6 5 5 5 6 5 4 4 4 5 4 2 4 5 4 4 4 4 5 7 7
6 6 6 6 6 6 7 7 7 6 6 6 6 5 4 5 7 6 8 8 8 9 8 7 7 7 6 5 5 5 5 5 5 4 4 5 4 4 4 4 6 7 7
5 5 6 6 6 6 7 7 8 7 6 6 6 6 6 6 6 6 6 6 6 6 7 7 7 7 6 5 5 5 5 5 5 4 3 4 4 4 4 4 5 6 6
5 5 5 6 6 6 7 7 7 5 5 6 6 6 6 6 7 7 6 6 6 5 5 7 7 6 6 6 5 3 3 3 4 3 2 3 3 4 4 4 3 5 6
5 5 5 6 6 6 6 7 7 4 5 4 5 5 6 6 6 6 6 5 5 5 4 4 5 5 5 5 5 5 4 4 3 3 2 2 3 3 3 3 3 3 4
Wind_Direction
204 214 229 238 260 276 265 266 257 257 256 251 247 248 249 252 253 258 274 337 306 290 281 284 282 287 294 297 296 297 300 304 307 311 310 301 302 296 292 293 287 289 290
213 216 221 231 246 259 267 265 264 259 252 248 246 244 250 249 251 255 265 252 291 298 292 288 281 286 291 297 299 299 300 301 302 304 306 305 303 294 290 289 290 287 287
218 225 224 227 239 248 248 262 264 263 261 252 250 253 256 253 254 255 261 264 252 267 296 297 291 292 293 296 298 302 300 298 299 301 302 301 302 297 289 288 290 286 282
226 224 225 226 230 232 235 237 250 254 254 257 261 259 257 254 254 256 256 258 266 266 267 295 296 297 297 299 301 297 297 295 297 298 298 298 298 298 291 292 292 289 282
229 223 224 224 218 223 230 238 243 253 255 260 268 269 264 260 259 256 253 259 263 270 270 277 288 299 304 304 305 302 297 297 294 296 297 298 300 298 294 294 293 292 289
227 227 219 221 220 217 222 232 239 255 261 262 268 271 267 264 258 258 257 256 258 263 267 271 266 274 300 309 309 308 300 298 297 298 297 297 302 301 300 295 295 293 294
222 222 223 213 217 221 225 230 236 239 250 255 255 259 254 246 247 250 254 261 260 263 264 262 273 284 285 295 306 311 308 303 305 304 302 302 304 303 303 303 300 298 297
220 221 222 219 217 223 222 221 226 235 236 243 253 254 249 230 215 236 251 256 260 257 259 264 272 280 286 286 305 308 309 306 304 305 305 301 304 304 304 305 301 301 301
221 224 221 221 220 225 226 224 223 227 232 233 250 255 256 250 268 216 235 242 255 262 264 274 280 280 284 288 287 292 309 308 305 303 303 305 304 301 302 304 303 302 305
222 222 222 220 220 224 230 232 232 235 235 230 231 248 272 293 271 264 221 233 262 269 272 275 277 278 280 282 288 301 307 305 304 302 302 304 307 303 300 302 302 302 304
219 220 224 224 224 227 230 232 236 236 238 239 235 234 238 251 261 262 264 262 267 268 275 273 273 276 281 276 278 300 303 303 302 301 305 307 305 305 302 300 301 301 299
225 222 224 229 230 230 230 229 230 233 235 239 238 236 235 236 243 255 264 266 272 274 275 269 265 269 275 278 284 306 303 304 304 303 305 307 306 303 303 303 300 301 301
229 227 224 228 231 232 231 230 225 227 229 233 235 237 240 243 250 255 261 268 273 273 263 258 263 267 268 279 285 302 293 299 300 301 303 302 303 301 299 301 301 300 300
232 232 228 230 234 234 231 228 228 227 228 229 234 235 237 237 237 243 252 262 268 266 257 262 275 264 269 281 296 296 285 292 296 296 297 298 299 298 295 295 296 297 296
232 231 231 232 235 233 232 230 228 228 229 228 230 231 235 236 239 243 246 250 255 265 267 264 266 268 284 283 286 282 282 289 292 292 292 294 294 294 293 291 290 293 295
228 228 230 232 234 232 230 229 230 230 229 228 228 230 233 234 237 238 240 247 255 260 267 272 270 277 283 279 280 281 282 286 281 286 287 288 289 291 291 290 289 289 292
229 227 227 229 229 230 227 227 228 228 230 231 229 231 235 237 238 239 239 242 250 254 261 273 276 276 276 277 278 279 281 280 279 281 283 284 288 291 292 292 288 288 290
230 230 228 228 230 231 228 226 226 228 231 232 230 230 234 235 239 241 239 241 248 253 258 268 273 274 274 278 283 282 283 280 280 280 282 282 284 286 289 290 288 290 293
228 228 228 227 229 231 230 230 228 228 232 233 230 229 233 234 238 239 240 244 248 253 256 261 270 276 275 281 289 284 281 280 280 277 280 274 276 282 285 287 290 295 299
228 228 230 230 231 231 231 231 231 231 233 232 228 228 231 233 237 239 240 243 248 254 254 256 262 269 277 289 287 288 286 285 284 282 280 283 281 279 278 284 289 293 299
233 231 230 230 230 231 231 233 231 231 232 232 228 227 229 234 240 242 245 244 245 252 253 254 259 266 267 279 279 284 284 290 286 277 287 286 280 276 274 275 280 288 293
234 232 232 231 230 231 237 238 236 230 231 233 233 232 230 229 234 238 244 250 249 248 250 252 256 257 264 267 278 276 282 286 286 284 292 286 278 275 277 277 287 291 292
233 232 234 234 235 236 234 235 235 235 233 234 235 234 233 233 234 238 237 239 242 246 250 254 254 254 260 264 268 270 271 275 279 290 289 279 280 280 286 283 289 292 294
231 232 235 236 238 239 235 236 235 234 237 236 236 236 235 234 232 238 236 242 246 245 250 254 258 262 263 265 261 263 266 279 289 281 272 272 286 291 296 287 284 284 289
232 232 234 237 239 239 235 234 232 234 236 237 237 238 238 238 234 232 236 243 251 257 257 261 274 277 281 276 270 257 257 269 286 284 272 267 284 302 294 280 283 282 285
236 235 235 236 238 241 237 234 228 232 236 238 238 236 235 241 238 230 232 238 248 258 261 257 257 260 262 256 252 245 239 249 273 274 266 272 276 303 298 287 295 295 283